| time (UTC) | temp C | wind direction | speed KPH | gust KPH | rain 1hr cm | rain 24hr cm | rain mn cm | humidity % | barometer mb |
| 20260505092703 | 21 | 0 | 0.0 | 8.0 | 0.36 | 1.85 | 1.55 | 97 | 1010.2 |
| 20260505091703 | 21 | 120 | 1.6 | 8.0 | 0.25 | 1.75 | 1.45 | 96 | 1010.1 |
| 20260505090704 | 21 | 110 | 1.6 | 8.0 | 0.20 | 1.70 | 1.40 | 96 | 1010.0 |
| 20260505085703 | 21 | 110 | 3.2 | 8.0 | 0.10 | 1.60 | 1.30 | 95 | 1010.0 |
| 20260505084703 | 21 | 40 | 3.2 | 8.0 | 0.05 | 1.55 | 1.24 | 94 | 1009.8 |
| 20260505083704 | 21 | 40 | 3.2 | 8.0 | 0.05 | 1.50 | 1.19 | 94 | 1009.8 |
| 20260505082704 | 21 | 40 | 3.2 | 8.0 | 0.10 | 1.50 | 1.19 | 95 | 1009.8 |
| 20260505081703 | 21 | 50 | 3.2 | 8.0 | 0.15 | 1.50 | 1.19 | 94 | 1009.9 |
| 20260505080703 | 21 | 70 | 3.2 | 8.0 | 0.15 | 1.50 | 1.19 | 95 | 1009.8 |
| 20260505075704 | 21 | 60 | 4.8 | 8.0 | 0.15 | 1.50 | 1.19 | 94 | 1009.8 |
| 20260505074704 | 21 | 60 | 1.6 | 8.0 | 0.15 | 1.50 | 1.19 | 95 | 1009.9 |
| 20260505073703 | 21 | 80 | 3.2 | 8.0 | 0.10 | 1.45 | 1.14 | 93 | 1009.9 |
| 20260505072703 | 21 | 50 | 3.2 | 8.0 | 0.05 | 1.40 | 1.09 | 93 | 1010.0 |
| 20260505071703 | 21 | 60 | 3.2 | 8.0 | 0.00 | 1.35 | 1.04 | 93 | 1009.9 |
| 20260505070704 | 21 | 90 | 1.6 | 12.9 | 0.00 | 1.35 | 1.04 | 93 | 1010.1 |
| 20260505065704 | 21 | 90 | 4.8 | 12.9 | 0.00 | 1.35 | 1.04 | 91 | 1010.1 |
| 20260505064704 | 21 | 80 | 3.2 | 12.9 | 0.00 | 1.35 | 1.04 | 91 | 1010.2 |
| 20260505063704 | 21 | 80 | 3.2 | 12.9 | 0.00 | 1.35 | 1.04 | 92 | 1010.4 |
| 20260505062703 | 21 | 90 | 3.2 | 12.9 | 0.00 | 1.35 | 1.04 | 92 | 1010.4 |
| 20260505061704 | 21 | 100 | 3.2 | 12.9 | 0.00 | 1.35 | 1.04 | 92 | 1010.6 |
| 20260505060704 | 21 | 90 | 3.2 | 11.3 | 0.00 | 1.35 | 1.04 | 93 | 1010.7 |
| 20260505055703 | 21 | 120 | 4.8 | 11.3 | 0.00 | 1.35 | 1.04 | 92 | 1010.8 |
| 20260505054704 | 21 | 110 | 3.2 | 11.3 | 0.00 | 1.35 | 1.04 | 92 | 1010.8 |
| 20260505053703 | 21 | 110 | 4.8 | 11.3 | 0.00 | 1.35 | 1.04 | 92 | 1011.0 |
| 20260505052704 | 21 | 120 | 4.8 | 11.3 | 0.00 | 1.35 | 1.04 | 92 | 1011.1 |
| 20260505051703 | 21 | 130 | 3.2 | 11.3 | 0.00 | 1.35 | 1.04 | 93 | 1011.1 |
| 20260505050703 | 21 | 140 | 4.8 | 6.4 | 0.00 | 1.35 | 1.04 | 93 | 1011.2 |
| 20260505041703 | 21 | 90 | 3.2 | 6.4 | 0.00 | 1.35 | 1.04 | 94 | 1011.5 |
| 20260505040706 | 21 | 80 | 1.6 | 12.9 | 0.00 | 1.35 | 1.04 | 93 | 1011.7 |
| 20260505035704 | 21 | 160 | 1.6 | 12.9 | 0.00 | 1.35 | 1.04 | 92 | 1011.7 |
| 20260505034703 | 21 | 160 | 1.6 | 12.9 | 0.00 | 1.35 | 1.04 | 92 | 1011.8 |
| 20260505033703 | 21 | 180 | 1.6 | 12.9 | 0.00 | 1.35 | 1.04 | 92 | 1011.9 |
| 20260505032704 | 20 | 120 | 1.6 | 12.9 | 0.00 | 1.35 | 1.04 | 93 | 1012.0 |
| 20260505031704 | 20 | 110 | 1.6 | 12.9 | 0.05 | 1.35 | 1.04 | 93 | 1012.0 |
| 20260505030703 | 20 | 160 | 1.6 | 12.9 | 0.05 | 1.35 | 1.04 | 93 | 1012.1 |
| 20260505025703 | 20 | 40 | 3.2 | 12.9 | 0.05 | 1.35 | 1.04 | 94 | 1012.0 |
| 20260505024704 | 20 | 90 | 4.8 | 12.9 | 0.05 | 1.35 | 1.04 | 94 | 1011.9 |
| 20260505023704 | 20 | 100 | 6.4 | 12.9 | 0.05 | 1.35 | 1.04 | 92 | 1011.9 |
| 20260505022704 | 20 | 100 | 3.2 | 12.9 | 0.05 | 1.35 | 1.04 | 93 | 1011.8 |
| 20260505021703 | 20 | 100 | 3.2 | 12.9 | 0.05 | 1.35 | 1.04 | 93 | 1012.0 |
| 20260505020704 | 20 | 100 | 6.4 | 12.9 | 0.00 | 1.30 | 0.99 | 93 | 1012.1 |
| 20260505015704 | 20 | 100 | 4.8 | 12.9 | 0.00 | 1.30 | 0.99 | 95 | 1011.9 |
| 20260505014703 | 19 | 70 | 6.4 | 12.9 | 0.05 | 1.30 | 0.99 | 95 | 1011.9 |
| 20260505012703 | 19 | 60 | 6.4 | 12.9 | 0.15 | 1.30 | 0.99 | 96 | 1012.1 |
| 20260505011703 | 19 | 60 | 6.4 | 12.9 | 0.15 | 1.30 | 0.99 | 96 | 1012.2 |
| 20260505010704 | 19 | 60 | 4.8 | 11.3 | 0.20 | 1.30 | 0.99 | 96 | 1012.1 |
| 20260505005704 | 19 | 90 | 3.2 | 11.3 | 0.20 | 1.30 | 0.99 | 96 | 1012.1 |
| 20260505004703 | 19 | 140 | 1.6 | 11.3 | 0.15 | 1.24 | 0.94 | 96 | 1012.0 |
| 20260505003708 | 19 | 120 | 3.2 | 11.3 | 0.20 | 0.94 | 0.66 | 96 | 1011.9 |
| 20260505002704 | 18 | 120 | 4.8 | 11.3 | 0.15 | 1.14 | 0.84 | 96 | 1011.9 |
| 20260505001705 | 18 | 100 | 1.6 | 11.3 | 0.20 | 1.14 | 0.84 | 96 | 1011.9 |
| 20260505000704 | 18 | 100 | 3.2 | 11.3 | 0.15 | 1.09 | 0.79 | 95 | 1011.8 |
| 20260504235704 | 18 | 60 | 3.2 | 11.3 | 0.20 | 1.09 | 0.79 | 96 | 1011.8 |
| 20260504234703 | 18 | 70 | 3.2 | 11.3 | 0.25 | 1.09 | 0.79 | 96 | 1011.7 |
| 20260504233703 | 18 | 100 | 4.8 | 11.3 | 0.25 | 1.04 | 0.76 | 96 | 1011.5 |
| 20260504232704 | 18 | 90 | 1.6 | 11.3 | 0.20 | 0.99 | 0.71 | 96 | 1011.5 |
| 20260504231704 | 18 | 50 | 4.8 | 11.3 | 0.15 | 0.94 | 0.66 | 96 | 1011.5 |
| 20260504230704 | 18 | 80 | 3.2 | 9.7 | 0.20 | 0.94 | 0.66 | 95 | 1011.4 |
| 20260504225704 | 18 | 80 | 3.2 | 9.7 | 0.15 | 0.89 | 0.61 | 96 | 1011.5 |
| 20260504224703 | 18 | 110 | 1.6 | 9.7 | 0.25 | 0.84 | 0.56 | 96 | 1011.4 |
| 20260504223704 | 18 | 130 | 3.2 | 9.7 | 0.25 | 0.79 | 0.51 | 95 | 1011.3 |
| 20260504222705 | 18 | 120 | 4.8 | 9.7 | 0.30 | 0.79 | 0.51 | 95 | 1011.2 |
| 20260504221704 | 18 | 120 | 3.2 | 9.7 | 0.36 | 0.79 | 0.51 | 95 | 1011.2 |
| 20260504220704 | 18 | 70 | 4.8 | 8.0 | 0.30 | 0.76 | 0.46 | 95 | 1011.1 |
| 20260504215703 | 18 | 50 | 3.2 | 8.0 | 0.30 | 0.76 | 0.46 | 95 | 1011.1 |
| 20260504214704 | 18 | 90 | 1.6 | 8.0 | 0.15 | 0.66 | 0.30 | 95 | 1010.9 |
| 20260504213703 | 18 | 90 | 1.6 | 8.0 | 0.10 | 0.61 | 0.25 | 94 | 1010.8 |
| 20260504212703 | 18 | 90 | 1.6 | 8.0 | 0.05 | 0.56 | 0.20 | 94 | 1010.7 |
| 20260504211704 | 18 | 90 | 3.2 | 8.0 | 0.05 | 0.51 | 0.15 | 93 | 1010.6 |
| 20260504210703 | 18 | 120 | 1.6 | 11.3 | 0.10 | 0.51 | 0.15 | 92 | 1010.5 |
| 20260504205703 | 18 | 110 | 1.6 | 11.3 | 0.10 | 0.51 | 0.15 | 93 | 1010.5 |
| 20260504204703 | 18 | 130 | 1.6 | 11.3 | 0.10 | 0.51 | 0.15 | 92 | 1010.5 |
| 20260504203704 | 18 | 120 | 1.6 | 11.3 | 0.15 | 0.51 | 0.15 | 93 | 1010.4 |
| 20260504202703 | 18 | 120 | 1.6 | 11.3 | 0.15 | 0.51 | 0.15 | 91 | 1010.4 |
| 20260504201703 | 18 | 130 | 3.2 | 11.3 | 0.10 | 0.46 | 0.10 | 90 | 1010.2 |
| 20260504200704 | 18 | 110 | 3.2 | 19.3 | 0.05 | 0.41 | 0.05 | 89 | 1010.1 |
| 20260504195703 | 18 | 130 | 3.2 | 19.3 | 0.05 | 0.41 | 0.05 | 88 | 1010.1 |
| 20260504194703 | 18 | 120 | 3.2 | 19.3 | 0.05 | 0.41 | 0.05 | 86 | 1010.0 |
| 20260504193704 | 18 | 100 | 6.4 | 19.3 | 0.00 | 0.36 | 0.00 | 86 | 1009.8 |
| 20260504192704 | 18 | 130 | 3.2 | 19.3 | 0.00 | 0.36 | 0.00 | 86 | 1009.8 |
| 20260504191703 | 18 | 70 | 3.2 | 19.3 | 0.00 | 0.36 | 0.00 | 86 | 1009.9 |
| 20260504190703 | 18 | 110 | 4.8 | 19.3 | 0.00 | 0.36 | 0.00 | 86 | 1009.9 |
| 20260504185704 | 18 | 110 | 6.4 | 19.3 | 0.00 | 0.36 | 0.00 | 86 | 1009.9 |
| 20260504184703 | 18 | 100 | 3.2 | 19.3 | 0.00 | 0.36 | 0.00 | 86 | 1010.0 |
| 20260504183703 | 18 | 120 | 4.8 | 19.3 | 0.00 | 0.36 | 0.00 | 85 | 1010.1 |
| 20260504182704 | 18 | 110 | 3.2 | 19.3 | 0.00 | 0.36 | 0.00 | 85 | 1010.2 |
| 20260504181703 | 18 | 130 | 6.4 | 19.3 | 0.00 | 0.36 | 0.00 | 85 | 1010.2 |
| 20260504180703 | 18 | 110 | 6.4 | 19.3 | 0.00 | 0.36 | 0.00 | 84 | 1010.3 |
| 20260504175703 | 18 | 130 | 4.8 | 19.3 | 0.00 | 0.36 | 0.00 | 83 | 1010.4 |
| 20260504174704 | 18 | 110 | 6.4 | 19.3 | 0.00 | 0.36 | 0.00 | 84 | 1010.4 |
| 20260504173706 | 18 | 120 | 6.4 | 19.3 | 0.00 | 0.36 | 0.00 | 83 | 1010.6 |
| 20260504172703 | 18 | 130 | 6.4 | 19.3 | 0.00 | 0.36 | 0.00 | 83 | 1010.8 |
| 20260504171705 | 18 | 130 | 6.4 | 19.3 | 0.00 | 0.36 | 0.00 | 84 | 1010.9 |
| 20260504170703 | 18 | 100 | 6.4 | 22.5 | 0.00 | 0.36 | 0.00 | 83 | 1011.0 |
| 20260504150704 | 17 | 120 | 3.2 | 22.5 | 0.00 | 0.36 | 0.36 | 83 | 1012.1 |
| 20260504140703 | 17 | 60 | 6.4 | 27.4 | 0.00 | 0.36 | 0.36 | 83 | 1012.6 |
| 20260504130703 | 17 | 70 | 9.7 | 22.5 | 0.05 | 0.36 | 0.36 | 84 | 1012.8 |
| 20260504110703 | 17 | 50 | 6.4 | 35.4 | 0.20 | 0.25 | 0.25 | 82 | 1012.9 |